Home   Weather   Strathcona County   Past weeks

Flag for Canada Past Weather in Strathcona County, Alberta, Canada — Yesterday and Last 2 Weeks

Now
32 °F

Chilly.


Feels Like: 24 °F
Forecast: 31 / 38 °F
Wind: 8 mph from Northwest

Location: Edmonton Municipal

Current Time: Apr 25, 2017 at 7:02:27 am

Latest Report: Apr 25, 2017 at 6:00 am


Visibility: N/A

Pressure: 29.97 "Hg (27.36 "Hg at 728m altitude)

Humidity: 93%

Dew Point: 30 °F

Location of Strathcona CountyLocation

Past Weather in Strathcona County — Graph

°F

Strathcona County Temperature Yesterday

Maximum temperature yesterday: 36 °F (at 12:00 pm)
Minimum temperature yesterday: 31 °F (at 5:00 am)
Average temperature yesterday: 34 °F

High & Low Weather Summary for the Past Weeks

 TemperatureHumidityPressure
High59 °F (Apr 20, 5:00 pm)100% (Apr 11, 5:00 am)30.44 "Hg (Apr 11, 5:00 am)
Low22 °F (Apr 16, 7:00 am)33% (Apr 20, 6:00 pm)29.70 "Hg (Apr 14, 2:00 pm)
Average35 °F83%30.05 "Hg
* Reported Apr 10 6:00 am — Apr 25 6:00 am, Strathcona County, Weather by CustomWeather, © 2017

Note: Actual official high and low records may vary slightly from our data, if they occured in-between our weather recording intervals... More about our weather records

Advertising

Strathcona County Weather History for the Previous 24 Hours

Scroll right to see more
 ConditionsComfort  
Time TempWeatherWind HumidityBarometerVisibility
6:00 am
Tue, Apr 25
32 °FChilly.8 mph93%29.97 "HgN/A
5:00 am31 °FChilly.7 mph100%29.96 "HgN/A
4:00 am33 °FChilly.5 mph90%29.95 "HgN/A
3:00 am33 °FChilly.5 mph93%29.95 "HgN/A
2:00 am33 °FChilly.5 mph94%29.95 "HgN/A
1:00 am33 °FChilly.5 mph93%29.94 "HgN/A
12:00 am33 °FChilly.2 mph92%29.93 "HgN/A
11:00 pm
Mon, Apr 24
33 °FChilly.3 mph93%29.93 "HgN/A
10:00 pm34 °FChilly.2 mph91%29.92 "HgN/A
9:00 pm34 °FChilly.5 mph91%29.90 "HgN/A
8:00 pm33 °FChilly.5 mph94%29.89 "HgN/A
7:00 pm35 °FChilly.5 mph91%29.87 "HgN/A
6:00 pm36 °FChilly.6 mph91%29.86 "HgN/A
5:00 pm35 °FChilly.6 mph93%29.85 "HgN/A
4:00 pm36 °FChilly.6 mph90%29.85 "HgN/A
3:00 pm36 °FChilly.7 mph84%29.83 "HgN/A
2:00 pm36 °FChilly.6 mph90%29.83 "HgN/A
1:00 pm36 °FChilly.6 mph89%29.82 "HgN/A
12:00 pm36 °FChilly.5 mph89%29.80 "HgN/A
11:00 am35 °FChilly.5 mph91%29.80 "HgN/A
10:00 am35 °FChilly.3 mph89%29.80 "HgN/A
9:00 am35 °FChilly.1 mph97%29.80 "HgN/A
8:00 am33 °FChilly.1 mph100%29.80 "HgN/A
7:00 am31 °FChilly.2 mph100%29.80 "HgN/A
Weather by CustomWeather, © 2017

See weather overviewHow to use our weather pages